This is the latest recevied weather packets stored in our database for station/object N4ASP-13. If no packets are shown the sender has not sent any weather packets the latest 10 day(s).
| Time | Temp. | Humidity | Pressure | Rain* | Wind** | Luminosity | Snow |
|---|---|---|---|---|---|---|---|
| 1778244450 | 11.67° C | 61% | 1017.8 hPa | 0 mm | - | 343 W/m² | - |
| 1778244387 | 11.67° C | 62% | 1017.7 hPa | 0 mm | - | 343 W/m² | - |
| 1778244325 | 11.67° C | 63% | 1017.8 hPa | 0 mm | - | 343 W/m² | - |
| 1778244266 | 11.67° C | 60% | 1017.8 hPa | 0 mm | - | 343 W/m² | - |
| 1778244206 | 11.67° C | 60% | 1017.7 hPa | 0 mm | - | 341 W/m² | - |
| 1778244144 | 11.67° C | 61% | 1017.7 hPa | 0 mm | - | 343 W/m² | - |
| 1778244080 | 11.67° C | 61% | 1017.7 hPa | 0 mm | - | 343 W/m² | - |
| 1778244019 | 11.67° C | 62% | 1017.6 hPa | 0 mm | - | 345 W/m² | - |
| 1778243956 | 11.67° C | 63% | 1017.6 hPa | 0 mm | - | 345 W/m² | - |
| 1778243896 | 11.67° C | 63% | 1017.7 hPa | 0 mm | - | 346 W/m² | - |
| 1778243834 | 11.67° C | 64% | 1017.7 hPa | 0 mm | - | 348 W/m² | - |
| 1778243771 | 11.67° C | 64% | 1017.7 hPa | 0 mm | - | 348 W/m² | - |
| 1778243712 | 11.67° C | 65% | 1017.7 hPa | 0 mm | - | 350 W/m² | - |
| 1778243649 | 11.67° C | 64% | 1017.6 hPa | 0 mm | - | 350 W/m² | - |
| 1778243590 | 11.67° C | 64% | 1017.7 hPa | 0 mm | - | 353 W/m² | - |
| 1778243528 | 11.67° C | 64% | 1017.7 hPa | 0 mm | - | 353 W/m² | - |
| 1778243461 | 11.11° C | 63% | 1017.6 hPa | 0 mm | - | 353 W/m² | - |
| 1778243401 | 11.11° C | 63% | 1017.6 hPa | 0 mm | - | 352 W/m² | - |
| 1778243345 | 11.11° C | 64% | 1017.6 hPa | 0 mm | - | 352 W/m² | - |
| 1778243282 | 11.11° C | 66% | 1017.7 hPa | 0 mm | - | 350 W/m² | - |
| 1778243222 | 11.11° C | 66% | 1017.5 hPa | 0 mm | - | 346 W/m² | - |
| 1778243154 | 11.11° C | 66% | 1017.5 hPa | 0 mm | - | 343 W/m² | - |
| 1778243091 | 11.11° C | 66% | 1017.6 hPa | 0 mm | - | 338 W/m² | - |
| 1778243032 | 11.11° C | 65% | 1017.5 hPa | 0 mm | - | 327 W/m² | - |
| 1778242971 | 11.11° C | 64% | 1017.6 hPa | 0 mm | - | 322 W/m² | - |
* Rain latest hour (hover to see other rain measurements)
** Current wind speed in m/s (hover to see current wind gust speed)